Regional Weather Roundup
Issued by NWS

Home | Current Version | Previous Version | Graphics & Text | Print | Product List | Glossary On
Versions: 1 2 3 4 5 6 7 8 9 10 11 12 13 14 15 16 17 18 19 20 21 22 23 24 25 26 27 28 29 30 31 32 33 34 35 36 37 38 39 40 41 42 43 44 45 46 47 48 49 50
681
ASUS45 KBOU 231607
RWRCO

WEATHER ROUNDUP FOR COLORADO
NATIONAL WEATHER SERVICE DENVER/BOULDER CO
1000 AM MDT SAT SEP 23 2017

NOTE: "FAIR" INDICATES FEW OR NO CLOUDS BELOW 12000 FEET WITH NO
SIGNIFICANT WEATHER AND/OR OBSTRUCTIONS TO VISIBILITY.

COZ001>005-013-030-031-231700-
...NORTHWEST COLORADO...

CITY           SKY/WX    TMP DP  RH WIND       PRES   REMARKS
CRAIG          LGT RAIN  49  40  71 S18G30    29.95S
HAYDEN         RAIN      44  42  93 CALM      30.01S
MEEKER         LGT RAIN  46  43  89 E13       29.94S
RABBIT EARS PA SNOW      34  34 100 NW7G20    30.08F VSB<1/4 WCI  28
STEAMBOAT SPGS CLOUDY    44  43  97 NW6       29.99F
WALDEN         FAIR      48  39  71 NW10      30.00F
$$

COZ006>008-011-231700-
...WEST CENTRAL VALLEYS...

CITY           SKY/WX    TMP DP  RH WIND       PRES   REMARKS
GRAND JUNCTION CLOUDY    53  49  86 SE21      29.87S
MONTROSE       RAIN      49  48  97 N6        29.97R FOG
EAGLE          CLOUDY    52  39  61 W5        29.95S
RIFLE          RAIN      50  49  96 W3        29.96R FOG
DELTA          NOT AVBL
NUCLA          LGT RAIN  48  45  87 SE7       29.96F
$$

COZ017>023-064>068-231700-
...SOUTHWEST COLORADO...

CITY           SKY/WX    TMP DP  RH WIND       PRES   REMARKS
DURANGO        FAIR      61  45  55 W15       29.94R
CORTEZ         HVY RAIN  49  48  97 NW3       29.95R FOG
PAGOSA SPRINGS CLOUDY    55  43  63 CALM      30.01S
TELLURIDE      LGT RAIN  40  40 100 CALM      30.02F
WOLF CREEK PAS LGT RAIN  36  36 100 S25G46    30.19F
$$

COZ009-010-012-014-032>034-037-058>063-231700-
...CENTRAL COLORADO...

CITY           SKY/WX    TMP DP  RH WIND       PRES   REMARKS
ASPEN          PTSUNNY   49  39  68 N8        29.96F
BUENA VISTA    CLOUDY    54  45  70 SE5       30.03S
COPPER MTN     FAIR      48  30  49 SE25G38   30.14F
BERTHOUD PASS  HAZE      32  25  74 SE33G41   30.19S VSB<1/4 WCI  17
COTTONWOOD PAS CLOUDY    48  46  93 SE8       30.11R
GUNNISON       FAIR      61  39  44 SE21      29.91F
KREMMLING      PTSUNNY   52  39  62 CALM      29.96F
LEADVILLE      PTSUNNY   49  36  61 S15G26    30.04F
MONARCH PASS   FOG       37  36  93 S14G28    30.31R VSB 3/4
SALIDA         CLOUDY    62  46  56 S6        30.07S
SUNLIGHT       SNOW      34  32  93 W8        30.11S VSB 1/2 WCI  27
WILKERSON PASS FAIR      43  36  75 S6        30.23R
$$

COZ069>075-231700-
...SAN LUIS VALLEY/SANGRE DE CRISTO MOUNTAINS...

CITY           SKY/WX    TMP DP  RH WIND       PRES   REMARKS
ALAMOSA        CLOUDY    56  47  71 SE15      30.00S
DEL NORTE      PTSUNNY   50  44  79 E10       30.03S
LA VETA PASS   CLOUDY    48  34  57 MISG      30.29S
SAGUACHE       PTSUNNY   52  45  76 SE6       30.04S
$$

COZ035-036-038>040-231700-
...NORTHERN COLORADO FRONT RANGE...

CITY           SKY/WX    TMP DP  RH WIND       PRES   REMARKS
DENVER INTL AP CLOUDY    48  42  80 NE6       30.00F
DMNS CITY PARK   N/A     50  42  72 NE5G14    29.99S
AURORA         CLOUDY    47  44  90 NE5       30.00S
FRONT RANGE AP CLOUDY    50  46  87 NE8       30.00
ERIE MUNI ARPT CLOUDY    51  41  70 CALM      30.05S
BOULDER MUN AP PTSUNNY   52  39  62 E6        29.99R
CENTENNIAL     CLOUDY    48  42  80 NW8       30.00S
BROOMFIELD     CLOUDY    50  41  71 NE3       30.01R
FORT COLLINS   CLOUDY    52  41  66 NE7       30.00R
LONGMONT       NOT AVBL
$$

COZ041-046-047-076>085-087-088-231700-
...PIKES PEAK/PALMER DIVIDE AND SOUTHERN FOOTHILLS...

CITY           SKY/WX    TMP DP  RH WIND       PRES   REMARKS
COLO. SPRINGS  PTSUNNY   57  41  55 SW5       30.00R
A. F. ACADEMY  FAIR      56  38  50 N8        29.99R
SCHRIEVER AFB  PTSUNNY   54  40  57 MISG      30.02R
CHEYENNE MTN   PTSUNNY   56  40  54 S7        29.98R
ELLICOTT       LGT RAIN N/A N/A N/A S9        30.02R
FALCON         PTSUNNY   54  39  58 N6        30.02R
FORT CARSON    PTSUNNY   58  40  51 E5        29.99R
LIMON            N/A    N/A N/A N/A MISG      30.01R
MONUMENT HILL  FAIR      45  37  76 CALM      30.04S
CANON CITY     PTSUNNY   64  45  48 E15       29.96R
WALSENBURG     CLOUDY    57  45  62 NW6       29.99F
TRINIDAD       CLOUDY    58  55  90 W7        29.96F
$$

COZ042>045-048>051-090-091-231700-
...NORTHEAST COLORADO...

CITY           SKY/WX    TMP DP  RH WIND       PRES   REMARKS
GREELEY ARPT   CLOUDY    49  41  74 E7        30.01R
AKRON          CLOUDY    46  42  86 N10       29.99R
BURLINGTON     CLOUDY    54  48  80 N8        29.97R
WRAY           CLOUDY    50  50 100 N7        29.97R FOG
YUMA           CLOUDY    46  43  87 N10       29.97R
STERLING       CLOUDY    46  46 100 NE7       29.98R FOG
HOLYOKE        CLOUDY    52  46  82 N12       29.96F FOG
FORT MORGAN    LGT RAIN  49  40  71 NE9       30.00S
$$

COZ086-089-092>099-231700-
...SOUTHEAST COLORADO...

CITY           SKY/WX    TMP DP  RH WIND       PRES   REMARKS
PUEBLO         LGT RAIN  58  45  62 E9        29.95R
LA JUNTA       RAIN      54  53  97 N8        29.98R FOG
LAMAR          PTSUNNY   69  57  65 W15G24    29.90R
SPRINGFIELD      N/A     68  63  84 S18       29.94R
$$




USA.gov is the U.S. government's official web portal to all federal, state and local government web resources and services.